DW4719 Vilanova I la Geltru ES current weather conditions

sailwx.info

Wind from 072 at 6 knots

Air temperature 10.0° C
Dewpoint 5.8° C

Last reported at 2017-Jan-20 21:44 UTC.
Time now 2017-Jan-20 22:07 UTC

Location: N 41°13' E 001°44'.
View on Google Maps.

See reports from other nearby stations

  
Tides and Currents Weather Stations Pressure Air Temp Water Temp Dewpoint Dewpoint Depression Visibility Wind Speed Wind Dir Waves Ship Positions
date/time (UTC)wind fromknots sea level pressurealtimeterstation pressurevisibilityair tempwater tempwave heightnotes
2017-Jan-20 21:44 072 6 10.0
2017-Jan-20 21:39 080 6 10.0
2017-Jan-20 21:34 042 6 10.0
2017-Jan-20 21:29 054 6 10.0
2017-Jan-20 21:24 034 6 10.0
2017-Jan-20 21:19 051 6 10.0
2017-Jan-20 21:14 075 6 10.0
2017-Jan-20 21:09 062 6 10.0
2017-Jan-20 21:04 051 7 10.0
2017-Jan-20 20:59 056 6 10.0
2017-Jan-20 20:54 058 6 10.0
2017-Jan-20 20:49 051 7 10.0
2017-Jan-20 20:44 109 8 10.0
2017-Jan-20 20:39 104 7 10.0
2017-Jan-20 20:34 069 6 10.0
2017-Jan-20 20:29 035 6 10.0
2017-Jan-20 20:24 007 6 10.0
2017-Jan-20 20:19 059 6 10.0
2017-Jan-20 20:14 088 6 10.0
2017-Jan-20 20:09 071 5 9.4
2017-Jan-20 20:04 068 5 9.4
2017-Jan-20 19:59 032 6 9.4
2017-Jan-20 19:54 066 6 9.4
2017-Jan-20 19:49 073 6 9.4
2017-Jan-20 19:44 058 7 10.0
2017-Jan-20 19:39 062 6 10.0
2017-Jan-20 19:34 061 6 10.0
2017-Jan-20 19:29 086 6 10.0
2017-Jan-20 19:24 068 7 10.0
2017-Jan-20 19:19 059 8 10.0
2017-Jan-20 19:14 076 9 10.0
2017-Jan-20 19:09 080 8 10.0
2017-Jan-20 19:04 042 7 10.0
2017-Jan-20 18:59 092 7 10.0
2017-Jan-20 18:54 058 8 10.6
2017-Jan-20 18:49 068 6 10.0
2017-Jan-20 18:44 045 6 10.0
2017-Jan-20 18:39 059 6 10.0
2017-Jan-20 18:34 072 6 10.0
2017-Jan-20 18:29 049 6 10.0
2017-Jan-20 18:24 041 6 10.0
2017-Jan-20 18:19 062 6 10.0
2017-Jan-20 18:06 052 7 10.0
2017-Jan-20 18:04 090 7 10.0
2017-Jan-20 17:59 072 7 10.0
2017-Jan-20 17:54 040 6 10.0
2017-Jan-20 17:49 078 6 10.0
2017-Jan-20 17:44 024 6 10.0
2017-Jan-20 17:39 044 6 10.0
2017-Jan-20 17:34 056 6 10.0
2017-Jan-20 17:29 016 7 10.0
2017-Jan-20 17:24 041 6 10.0
2017-Jan-20 17:19 055 6 10.0
2017-Jan-20 17:14 102 6 10.0
2017-Jan-20 17:09 064 6 10.0
2017-Jan-20 17:04 096 6 10.0
2017-Jan-20 16:59 080 6 10.0
2017-Jan-20 16:54 069 6 10.0
2017-Jan-20 16:49 052 6 10.0
2017-Jan-20 16:44 075 7 10.0
2017-Jan-20 16:39 037 6 10.0
2017-Jan-20 16:34 028 6 10.0
2017-Jan-20 16:29 062 7 10.0
2017-Jan-20 16:24 042 7 10.0
2017-Jan-20 16:19 003 6 10.0
2017-Jan-20 16:14 082 6 10.0
2017-Jan-20 16:09 045 6 10.0
2017-Jan-20 16:04 061 6 10.0
2017-Jan-20 15:59 092 8 10.0
2017-Jan-20 15:54 041 8 10.6
2017-Jan-20 15:49 066 8 11.1
2017-Jan-20 15:44 124 10 11.1
2017-Jan-20 15:39 083 10 11.1
2017-Jan-20 15:34 045 9 11.1
2017-Jan-20 15:29 059 11 11.1
2017-Jan-20 15:24 041 10 11.1
2017-Jan-20 15:19 055 7 11.1
2017-Jan-20 15:14 085 8 11.1
2017-Jan-20 15:09 085 10 11.1
2017-Jan-20 15:04 082 9 11.1
2017-Jan-20 14:59 058 9 11.1
2017-Jan-20 14:54 034 8 11.1
2017-Jan-20 14:49 007 7 11.1
2017-Jan-20 14:44 086 6 11.1
2017-Jan-20 14:39 061 6 11.1
2017-Jan-20 14:34 068 6 11.1
2017-Jan-20 14:29 055 7 11.1
2017-Jan-20 14:24 044 7 11.1
2017-Jan-20 14:19 061 6 11.1
2017-Jan-20 14:14 078 8 11.1
2017-Jan-20 14:09 085 8 11.1
2017-Jan-20 14:04 066 7 11.1
2017-Jan-20 13:59 354 7 11.1
2017-Jan-20 13:54 042 8 11.1
2017-Jan-20 13:49 035 8 11.1
2017-Jan-20 13:44 068 9 11.1
2017-Jan-20 13:39 109 9 11.1
2017-Jan-20 13:34 058 8 11.1
2017-Jan-20 13:29 051 9 11.1
2017-Jan-20 13:24 034 8 11.1
2017-Jan-20 13:19 089 7 11.1
2017-Jan-20 13:14 075 8 11.1
2017-Jan-20 13:09 054 9 11.1
2017-Jan-20 13:04 041 9 10.6
2017-Jan-20 12:59 030 7 10.6
2017-Jan-20 12:54 055 8 10.6
2017-Jan-20 12:49 052 8 10.6
2017-Jan-20 12:44 024 6 10.6
2017-Jan-20 12:39 068 6 10.6
2017-Jan-20 12:34 073 7 10.6
2017-Jan-20 12:29 082 7 10.6
2017-Jan-20 12:24 072 6 10.6
2017-Jan-20 12:19 051 6 10.6
2017-Jan-20 12:14 079 7 10.0
2017-Jan-20 12:09 025 6 10.0
2017-Jan-20 12:04 027 6 10.0
2017-Jan-20 11:59 062 6 10.0
2017-Jan-20 11:54 072 6 10.0
2017-Jan-20 11:49 086 6 10.0
2017-Jan-20 11:45 075 6 10.0
2017-Jan-20 11:39 068 6 10.0
2017-Jan-20 11:34 048 7 10.0
2017-Jan-20 11:29 102 9 10.0
2017-Jan-20 11:24 073 8 10.6
2017-Jan-20 11:19 052 7 10.6
2017-Jan-20 11:15 052 8 10.6
2017-Jan-20 11:09 068 11 11.1
2017-Jan-20 11:04 073 12 11.1
2017-Jan-20 10:59 048 10 11.1
2017-Jan-20 10:54 061 9 11.1
2017-Jan-20 10:49 037 8 11.1
2017-Jan-20 10:44 103 8 11.1
2017-Jan-20 10:39 056 9 11.1
2017-Jan-20 10:34 034 8 11.1
2017-Jan-20 10:30 065 6 11.1
2017-Jan-20 10:24 068 7 11.1
2017-Jan-20 10:19 023 7 11.1
2017-Jan-20 10:14 041 7 11.1
2017-Jan-20 10:09 095 8 10.6
2017-Jan-20 10:04 090 7 10.6
2017-Jan-20 09:59 058 6 10.0
2017-Jan-20 09:54 100 5 10.0
2017-Jan-20 09:50 047 4 10.0
2017-Jan-20 09:39 054 4 10.0
2017-Jan-20 09:34 032 5 10.0
2017-Jan-20 09:29 080 5 10.0
2017-Jan-20 09:24 075 4 10.0
2017-Jan-20 09:19 093 5 10.0
2017-Jan-20 09:14 051 6 10.0
2017-Jan-20 09:09 034 6 10.0
2017-Jan-20 09:04 095 6 10.0
2017-Jan-20 09:00 054 6 10.6
2017-Jan-20 08:54 056 6 10.6
2017-Jan-20 08:49 044 6 10.6
2017-Jan-20 08:44 054 6 10.6
2017-Jan-20 08:39 028 6 10.6
2017-Jan-20 08:34 034 7 10.6
2017-Jan-20 08:29 055 8 10.0
2017-Jan-20 08:24 119 7 10.0
2017-Jan-20 08:20 040 7 10.0
2017-Jan-20 08:15 072 6 10.0
2017-Jan-20 08:09 079 6 10.0
2017-Jan-20 08:04 041 7 10.0
2017-Jan-20 07:59 056 7 9.4
2017-Jan-20 07:54 049 7 9.4
2017-Jan-20 07:49 059 6 9.4
2017-Jan-20 07:44 059 7 10.0
2017-Jan-20 07:39 066 7 10.0
2017-Jan-20 07:34 102 6 10.0
2017-Jan-20 07:29 052 6 10.0
2017-Jan-20 07:25 055 7 10.0
2017-Jan-20 07:19 042 6 10.0
2017-Jan-20 07:14 064 5 10.0
2017-Jan-20 07:09 075 6 10.0
2017-Jan-20 07:04 049 7 10.0
2017-Jan-20 06:59 025 8 10.0
2017-Jan-20 06:54 109 6 10.0
2017-Jan-20 06:49 078 5 10.0
2017-Jan-20 06:44 073 6 10.0
2017-Jan-20 06:39 061 6 10.0
2017-Jan-20 06:35 049 6 10.0
2017-Jan-20 06:29 052 7 10.0
2017-Jan-20 06:24 051 6 9.4
2017-Jan-20 06:19 075 6 9.4
2017-Jan-20 06:14 104 7 9.4
2017-Jan-20 06:09 055 8 9.4
2017-Jan-20 06:04 023 7 9.4
2017-Jan-20 05:59 041 6 9.4
2017-Jan-20 05:54 086 6 9.4
2017-Jan-20 05:49 082 6 9.4
2017-Jan-20 05:44 052 6 9.4
2017-Jan-20 05:40 055 6 9.4
2017-Jan-20 05:34 058 7 9.4
2017-Jan-20 05:29 048 6 9.4
2017-Jan-20 05:24 014 6 8.9
2017-Jan-20 05:19 076 6 8.9
2017-Jan-20 05:14 055 6 8.9
2017-Jan-20 05:09 064 7 8.9
2017-Jan-20 05:04 068 7 8.9
2017-Jan-20 04:59 045 6 8.9
2017-Jan-20 04:54 040 6 8.9
2017-Jan-20 04:49 058 6 8.9
2017-Jan-20 04:44 080 6 8.9
2017-Jan-20 04:39 066 6 8.9
2017-Jan-20 04:34 073 6 8.3
2017-Jan-20 04:29 047 6 8.3
2017-Jan-20 04:24 064 6 8.3
2017-Jan-20 04:19 061 6 8.9
2017-Jan-20 04:14 088 6 8.9
2017-Jan-20 04:09 096 6 8.9
2017-Jan-20 04:04 079 6 8.9
2017-Jan-20 03:59 069 6 8.9
2017-Jan-20 03:54 073 7 8.9
2017-Jan-20 03:49 042 7 8.9
2017-Jan-20 03:44 089 6 8.9
2017-Jan-20 03:39 071 6 8.9
2017-Jan-20 03:34 064 7 8.9
2017-Jan-20 03:29 040 7 8.9
2017-Jan-20 03:24 083 6 8.9
2017-Jan-20 03:19 062 6 8.9
2017-Jan-20 03:14 076 6 8.9
2017-Jan-20 03:09 062 6 9.4
2017-Jan-20 03:04 055 6 9.4
2017-Jan-20 02:59 055 6 9.4
2017-Jan-20 02:54 031 6 9.4
2017-Jan-20 02:49 095 6 9.4
2017-Jan-20 02:44 055 6 9.4
2017-Jan-20 02:39 056 6 9.4
2017-Jan-20 02:34 082 6 9.4
2017-Jan-20 02:29 103 6 9.4
2017-Jan-20 02:24 044 6 9.4
2017-Jan-20 02:19 056 6 10.0
2017-Jan-20 02:14 079 6 10.0
2017-Jan-20 02:09 028 6 10.0
2017-Jan-20 02:04 032 6 10.0
2017-Jan-20 01:59 052 7 10.0
2017-Jan-20 01:54 051 9 10.0
2017-Jan-20 01:49 056 9 9.4
2017-Jan-20 01:44 086 8 9.4
2017-Jan-20 01:39 061 8 9.4
2017-Jan-20 01:34 056 9 9.4
2017-Jan-20 01:29 034 10 9.4
2017-Jan-20 01:24 049 8 9.4
2017-Jan-20 01:19 041 8 9.4
2017-Jan-20 01:14 086 9 10.0
2017-Jan-20 01:09 079 9 10.0
2017-Jan-20 01:04 024 9 9.4
2017-Jan-20 00:59 038 9 10.0
2017-Jan-20 00:54 086 8 10.0
2017-Jan-20 00:49 072 8 10.0
2017-Jan-20 00:44 056 9 10.0
2017-Jan-20 00:39 073 8 10.0
2017-Jan-20 00:34 051 9 10.0
2017-Jan-20 00:29 061 11 10.0
2017-Jan-20 00:24 071 10 10.0
2017-Jan-20 00:19 037 9 10.0
2017-Jan-20 00:14 071 8 10.0
2017-Jan-20 00:09 069 8 10.0
2017-Jan-20 00:05 075 8 10.0
2017-Jan-20 00:00 064 8 9.4
2017-Jan-19 23:55 034 10 9.4
2017-Jan-19 23:49 099 10 9.4
2017-Jan-19 23:44 097 8 9.4
2017-Jan-19 23:39 076 6 10.0
2017-Jan-19 23:34 083 7 9.4
2017-Jan-19 23:30 054 7 9.4
2017-Jan-19 23:25 058 7 9.4
2017-Jan-19 23:19 083 7 9.4
2017-Jan-19 23:14 047 6 9.4
2017-Jan-19 23:09 058 7 9.4
2017-Jan-19 23:04 092 8 9.4
2017-Jan-19 22:59 048 9 10.0
2017-Jan-19 22:54 096 9 10.0
2017-Jan-19 22:49 031 9 10.0
2017-Jan-19 22:45 048 9 10.0
2017-Jan-19 22:39 061 8 10.0
2017-Jan-19 22:34 024 8 10.0
2017-Jan-19 22:29 041 7 10.0
2017-Jan-19 22:24 051 8 10.0
2017-Jan-19 22:19 075 7 10.0
2017-Jan-19 22:14 062 7 10.0
2017-Jan-19 22:09 045 8 10.0
2017-Jan-19 22:04 056 10 10.0
2017-Jan-19 21:59 073 10 10.0
2017-Jan-19 21:54 052 9 10.0
2017-Jan-19 21:50 088 8 10.0
2017-Jan-19 21:44 066 7 10.0
2017-Jan-19 21:39 109 7 10.0
2017-Jan-19 21:34 044 7 10.0
2017-Jan-19 21:29 010 5 10.0
2017-Jan-19 21:24 014 6 10.0
2017-Jan-19 21:20 055 6 10.0
2017-Jan-19 21:14 041 7 10.0
2017-Jan-19 21:09 044 8 10.0
2017-Jan-19 21:04 059 8 10.0
2017-Jan-19 20:59 073 7 10.0
2017-Jan-19 20:54 078 6 10.0
2017-Jan-19 20:49 034 7 10.0
2017-Jan-19 20:44 030 6 10.0
2017-Jan-19 20:39 052 6 10.0
2017-Jan-19 20:34 096 8 10.0
2017-Jan-19 20:29 086 8 10.0
2017-Jan-19 20:24 056 10 10.0
2017-Jan-19 20:19 080 10 10.0
2017-Jan-19 20:14 051 9 10.0
2017-Jan-19 20:09 085 8 10.0
2017-Jan-19 20:04 049 7 10.0
2017-Jan-19 19:59 054 7 10.0
2017-Jan-19 19:54 099 6 10.0
2017-Jan-19 19:49 075 6 10.0
2017-Jan-19 19:44 034 7 10.0
2017-Jan-19 19:39 069 6 10.0
2017-Jan-19 19:34 069 6 10.0
2017-Jan-19 19:29 062 7 10.0
2017-Jan-19 19:24 088 8 10.0
2017-Jan-19 19:19 076 7 10.0
2017-Jan-19 19:14 055 6 10.0
2017-Jan-19 19:09 054 7 10.0
2017-Jan-19 19:05 052 7 10.0
2017-Jan-19 18:59 055 6 9.4
2017-Jan-19 18:55 054 6 9.4
2017-Jan-19 18:49 052 6 9.4
2017-Jan-19 18:44 076 7 9.4
2017-Jan-19 18:39 047 7 9.4
2017-Jan-19 18:34 059 7 9.4
2017-Jan-19 18:30 061 7 9.4
2017-Jan-19 18:25 099 7 9.4
2017-Jan-19 18:19 040 6 9.4
2017-Jan-19 18:14 048 6 9.4
2017-Jan-19 18:09 059 6 9.4
2017-Jan-19 18:04 059 6 9.4
2017-Jan-19 17:59 056 6 9.4
2017-Jan-19 17:54 041 8 9.4
2017-Jan-19 17:49 058 7 9.4
2017-Jan-19 17:44 044 7 9.4
2017-Jan-19 17:39 051 6 10.0
2017-Jan-19 17:34 068 6 10.0
2017-Jan-19 17:29 061 6 10.0
2017-Jan-19 17:24 055 8 10.0
2017-Jan-19 17:19 083 8 10.0
2017-Jan-19 17:14 068 7 10.0
2017-Jan-19 17:09 047 8 10.0
2017-Jan-19 17:04 044 8 10.0
2017-Jan-19 16:59 047 8 10.0
2017-Jan-19 16:55 044 7 10.0
2017-Jan-19 16:49 093 8 10.6
2017-Jan-19 16:44 014 9 10.6
2017-Jan-19 16:39 040 10 10.6
2017-Jan-19 16:34 027 9 10.6
2017-Jan-19 16:29 085 8 10.6
2017-Jan-19 16:25 055 9 10.6
2017-Jan-19 16:19 028 10 10.6
2017-Jan-19 16:14 042 9 10.6
2017-Jan-19 16:09 100 10 10.6
2017-Jan-19 16:04 047 10 10.6
2017-Jan-19 15:59 064 8 10.6
2017-Jan-19 15:54 083 7 11.1
2017-Jan-19 15:49 076 6 11.1
2017-Jan-19 15:44 065 6 11.1
2017-Jan-19 15:39 049 8 11.1
2017-Jan-19 15:34 323 9 11.1
2017-Jan-19 15:29 071 11 11.1
2017-Jan-19 15:25 052 9 11.1
2017-Jan-19 15:20 049 9 11.1
2017-Jan-19 15:15 047 9 11.1
2017-Jan-19 15:09 027 10 11.1
2017-Jan-19 15:04 086 12 11.1
2017-Jan-19 14:59 062 11 11.1
2017-Jan-19 14:54 051 10 11.1
2017-Jan-19 14:49 055 11 11.1
2017-Jan-19 14:44 052 12 11.1
2017-Jan-19 14:39 049 11 11.1
2017-Jan-19 14:34 097 11 11.1
2017-Jan-19 14:29 068 11 11.1
2017-Jan-19 14:24 013 10 11.1
2017-Jan-19 14:19 086 9 11.1
2017-Jan-19 14:14 030 11 11.1
2017-Jan-19 14:09 085 11 11.1
2017-Jan-19 14:04 045 11 11.1
2017-Jan-19 13:59 093 12 11.1
2017-Jan-19 13:54 075 11 11.1
2017-Jan-19 13:49 090 11 11.1
2017-Jan-19 13:44 079 12 11.1
2017-Jan-19 13:39 054 10 11.1
2017-Jan-19 13:34 078 10 11.1
2017-Jan-19 13:29 071 12 11.1
2017-Jan-19 13:25 079 11 11.1
2017-Jan-19 13:19 079 11 11.1
2017-Jan-19 13:14 072 10 11.1
2017-Jan-19 13:09 059 10 11.1
2017-Jan-19 13:04 054 10 11.1
2017-Jan-19 12:59 068 9 11.1
2017-Jan-19 12:55 058 8 11.1
2017-Jan-19 12:49 041 8 11.1
2017-Jan-19 12:44 047 8 11.1
2017-Jan-19 12:39 085 7 11.1
2017-Jan-19 12:34 054 8 11.1
2017-Jan-19 12:29 145 8 11.1
2017-Jan-19 12:24 044 8 11.1
2017-Jan-19 12:19 045 7 11.1
2017-Jan-19 12:14 040 6 11.1
2017-Jan-19 12:09 035 6 11.1
2017-Jan-19 12:04 076 6 11.7
2017-Jan-19 11:59 031 7 11.7
2017-Jan-19 11:55 042 6 11.1
2017-Jan-19 11:49 051 6 11.1
2017-Jan-19 11:44 042 7 11.1
2017-Jan-19 11:39 085 7 11.1
2017-Jan-19 11:34 064 8 11.1
2017-Jan-19 11:29 065 8 11.1
2017-Jan-19 11:24 066 9 11.1
2017-Jan-19 11:20 056 8 11.1
2017-Jan-19 11:14 065 9 11.1
2017-Jan-19 11:09 069 8 11.1
2017-Jan-19 11:04 088 7 11.1
2017-Jan-19 10:59 034 6 11.1
2017-Jan-19 10:54 047 6 11.1
2017-Jan-19 10:49 058 6 10.6
2017-Jan-19 10:37 080 6 10.6
2017-Jan-19 10:34 099 6 10.6
2017-Jan-19 10:29 104 6 10.6
2017-Jan-19 10:24 062 8 10.6
2017-Jan-19 10:19 010 9 10.0
2017-Jan-19 10:14 083 9 10.0
2017-Jan-19 10:09 059 8 10.0
2017-Jan-19 10:04 069 7 10.0
2017-Jan-19 09:59 068 7 10.0
2017-Jan-19 09:54 076 7 10.0
2017-Jan-19 09:49 024 6 10.0
2017-Jan-19 09:44 011 5 9.4
2017-Jan-19 09:39 093 4 9.4
2017-Jan-19 09:35 073 3 8.9
2017-Jan-19 09:29 356 3 8.3
2017-Jan-19 09:24 035 3 8.3
2017-Jan-19 09:19 315 3 7.8
2017-Jan-19 09:14 040 3 7.2
2017-Jan-19 09:09 264 4 6.7
2017-Jan-19 09:04 360 3 6.7
2017-Jan-19 08:59 360 2 6.1
2017-Jan-19 08:54 065 3 6.1
2017-Jan-19 08:49 054 4 5.6
2017-Jan-19 08:44 356 4 5.6
2017-Jan-19 08:39 061 4 5.0
2017-Jan-19 08:34 041 2 5.0
2017-Jan-19 08:29 020 3 5.0
2017-Jan-19 08:24 083 3 5.0
2017-Jan-19 08:19 356 2 5.0
2017-Jan-19 08:14 028 2 4.4
2017-Jan-19 08:09 010 3 4.4
2017-Jan-19 08:04 003 3 4.4
2017-Jan-19 07:59 031 4 4.4
2017-Jan-19 07:54 041 4 4.4
2017-Jan-19 07:50 020 4 4.4
2017-Jan-19 07:44 107 3 4.4
2017-Jan-19 07:39 027 3 4.4
2017-Jan-19 07:34 124 3 4.4
2017-Jan-19 07:29 079 3 3.9
2017-Jan-19 07:24 086 2 3.9
2017-Jan-19 07:19 281 2 4.4
2017-Jan-19 07:14 360 3 4.4
2017-Jan-19 07:09 061 2 4.4
2017-Jan-19 07:04 023 2 4.4
2017-Jan-19 06:59 102 3 4.4
2017-Jan-19 06:54 299 2 4.4
2017-Jan-19 06:49 088 2 4.4
2017-Jan-19 06:44 086 2 4.4
2017-Jan-19 06:39 093 2 4.4
2017-Jan-19 06:34 069 2 4.4
2017-Jan-19 06:29 127 2 4.4
2017-Jan-19 06:24 085 2 4.4
2017-Jan-19 06:19 346 2 4.4
2017-Jan-19 06:14 021 2 4.4
2017-Jan-19 06:09 093 3 4.4
2017-Jan-19 06:04 062 3 4.4
2017-Jan-19 05:59 042 3 4.4
2017-Jan-19 05:54 054 4 4.4
2017-Jan-19 05:49 056 4 4.4
2017-Jan-19 05:43 103 4 4.4
2017-Jan-19 05:39 041 4 4.4
2017-Jan-19 05:34 055 4 4.4
2017-Jan-19 05:29 027 4 4.4
2017-Jan-19 05:24 073 5 4.4
2017-Jan-19 05:19 103 5 4.4
2017-Jan-19 05:14 064 4 4.4
2017-Jan-19 05:09 056 4 4.4
2017-Jan-19 05:04 065 4 4.4
2017-Jan-19 04:59 040 4 4.4
2017-Jan-19 04:54 083 3 4.4
2017-Jan-19 04:49 059 3 4.4
2017-Jan-19 04:44 360 5 4.4
2017-Jan-19 04:39 044 5 4.4
2017-Jan-19 04:34 066 5 4.4
2017-Jan-19 04:29 079 6 4.4
2017-Jan-19 04:24 076 4 4.4
2017-Jan-19 04:19 093 3 4.4
2017-Jan-19 04:14 291 3 4.4
2017-Jan-19 04:09 066 5 4.4
2017-Jan-19 04:04 078 5 4.4
2017-Jan-19 03:59 072 3 4.4
2017-Jan-19 03:54 051 3 4.4
2017-Jan-19 03:49 203 2 5.0
2017-Jan-19 03:45 092 2 5.0
2017-Jan-19 03:39 092 2 5.0
2017-Jan-19 03:34 024 2 5.0
2017-Jan-19 03:29 040 2 5.0
2017-Jan-19 03:24 061 3 5.0
2017-Jan-19 03:19 069 4 5.0
2017-Jan-19 03:14 071 5 5.0
2017-Jan-19 03:09 110 5 5.0
2017-Jan-19 03:04 040 3 5.0
2017-Jan-19 02:59 056 2 5.0
2017-Jan-19 02:54 075 1 5.0
2017-Jan-19 02:49 083 1 4.4
2017-Jan-19 02:44 350 2 4.4
2017-Jan-19 02:39 095 2 4.4
2017-Jan-19 02:34 061 1 4.4
2017-Jan-19 02:29 078 1 4.4
2017-Jan-19 02:24 088 1 4.4
2017-Jan-19 02:19 065 1 4.4
2017-Jan-19 02:14 340 1 4.4
2017-Jan-19 02:09 049 2 4.4
2017-Jan-19 02:04 041 2 4.4
2017-Jan-19 01:59 065 3 4.4
2017-Jan-19 01:54 068 4 4.4
2017-Jan-19 01:49 066 5 4.4
2017-Jan-19 01:44 076 4 4.4
2017-Jan-19 01:39 066 4 4.4
2017-Jan-19 01:34 068 4 4.4
2017-Jan-19 01:29 054 4 4.4
2017-Jan-19 01:24 048 4 4.4
2017-Jan-19 01:19 027 4 4.4
2017-Jan-19 01:14 038 5 4.4
2017-Jan-19 01:09 083 6 4.4
2017-Jan-19 01:04 056 6 4.4
2017-Jan-19 00:59 065 6 3.9
2017-Jan-19 00:54 068 6 3.9
2017-Jan-19 00:49 040 6 3.9
2017-Jan-19 00:44 037 6 3.9
2017-Jan-19 00:39 059 6 3.9
2017-Jan-19 00:34 064 5 3.9
2017-Jan-19 00:29 068 4 3.9
2017-Jan-19 00:24 059 6 3.9
2017-Jan-19 00:19 061 6 3.9
2017-Jan-19 00:14 024 6 3.9
2017-Jan-19 00:09 085 6 3.9
2017-Jan-19 00:04 066 6 3.9
2017-Jan-18 23:59 066 6 3.9
2017-Jan-18 23:54 062 6 3.9
2017-Jan-18 23:49 056 6 4.4
2017-Jan-18 23:44 069 6 4.4
2017-Jan-18 23:39 090 5 4.4
2017-Jan-18 23:34 049 5 3.9
2017-Jan-18 23:29 066 4 4.4
2017-Jan-18 23:24 064 4 3.9
2017-Jan-18 23:19 064 4 3.9
2017-Jan-18 23:14 054 4 3.9
2017-Jan-18 23:09 064 4 3.9
2017-Jan-18 23:04 052 5 3.9
2017-Jan-18 22:59 092 5 3.9
2017-Jan-18 22:54 048 5 3.9
2017-Jan-18 22:49 082 5 3.9
2017-Jan-18 22:44 069 6 3.9
2017-Jan-18 22:39 065 5 3.9
2017-Jan-18 22:34 059 4 3.9
2017-Jan-18 22:29 058 5 3.9
2017-Jan-18 22:24 061 4 3.9
2017-Jan-18 22:19 038 4 3.9
2017-Jan-18 22:14 049 4 3.9
2017-Jan-18 22:09 068 3 3.9
2017-Jan-18 22:04 068 3 3.9